This is the latest recevied weather packets stored in our database for station/object KA3RQR. If no packets are shown the sender has not sent any weather packets the latest 10 day(s).
| Time | Temp. | Humidity | Pressure | Rain* | Wind** | Luminosity | Snow |
|---|---|---|---|---|---|---|---|
| 1777749519 | 16.11° C | 42% | 1012.4 hPa | 0 mm | - | 138 W/m² | - |
| 1777749217 | 14.44° C | 43% | 1012.4 hPa | 0 mm | - | 450 W/m² | - |
| 1777748914 | 13.89° C | 43% | 1012.6 hPa | 0 mm | - | 139 W/m² | - |
| 1777748611 | 15° C | 43% | 1012.8 hPa | 0 mm | - | 127 W/m² | - |
| 1777748307 | 15.56° C | 44% | 1012.8 hPa | 0 mm | - | 158 W/m² | - |
| 1777748003 | 14.44° C | 45% | 1012.8 hPa | 0 mm | - | 162 W/m² | - |
| 1777747700 | 13.89° C | 46% | 1013.4 hPa | 0 mm | - | 162 W/m² | - |
| 1777747395 | 13.89° C | 45% | 1013.4 hPa | 0 mm | - | 129 W/m² | - |
| 1777747092 | 14.44° C | 43% | 1013.2 hPa | 0 mm | - | 124 W/m² | - |
| 1777746788 | 15° C | 45% | 1013.2 hPa | 0 mm | - | 143 W/m² | - |
| 1777746484 | 14.44° C | 46% | 1013.3 hPa | 0 mm | - | 185 W/m² | - |
| 1777746179 | 13.89° C | 45% | 1013.4 hPa | 0 mm | - | 181 W/m² | - |
| 1777745875 | 13.89° C | 44% | 1013.7 hPa | 0 mm | - | 192 W/m² | - |
| 1777745570 | 13.89° C | 50% | 1013.6 hPa | 0 mm | - | 179 W/m² | - |
| 1777745267 | 13.89° C | 43% | 1013.6 hPa | 0 mm | - | 193 W/m² | - |
| 1777744964 | 13.89° C | 47% | 1013.7 hPa | 0 mm | - | 208 W/m² | - |
| 1777744664 | 13.89° C | 46% | 1013.7 hPa | 0 mm | - | 212 W/m² | - |
| 1777744358 | 13.89° C | 45% | 1013.8 hPa | 0 mm | - | 229 W/m² | - |
| 1777744056 | 13.89° C | 46% | 1014 hPa | 0 mm | - | 239 W/m² | - |
| 1777743753 | 13.89° C | 48% | 1014.1 hPa | 0 mm | - | 235 W/m² | - |
| 1777743450 | 13.33° C | 47% | 1014 hPa | 0 mm | - | 176 W/m² | - |
| 1777743147 | 13.89° C | 46% | 1014 hPa | 0 mm | - | 214 W/m² | - |
| 1777742845 | 13.89° C | 45% | 1014 hPa | 0 mm | - | 241 W/m² | - |
| 1777742541 | 13.89° C | 46% | 1013.9 hPa | 0 mm | - | 240 W/m² | - |
| 1777742237 | 13.33° C | 49% | 1013.9 hPa | 0 mm | - | 247 W/m² | - |
* Rain latest hour (hover to see other rain measurements)
** Current wind speed in m/s (hover to see current wind gust speed)